Year,Month,Day,Hour,Minute,Value (Times are PST for temperature in C)
2008,04,12,00,00,7.10
2008,04,12,00,01,7.10
2008,04,12,00,02,7.10
2008,04,12,00,03,7.10
2008,04,12,00,04,7.10
2008,04,12,00,05,7.00
2008,04,12,00,06,7.00
2008,04,12,00,07,7.00
2008,04,12,00,08,6.90
2008,04,12,00,09,6.90
2008,04,12,00,10,6.80
2008,04,12,00,11,6.80
2008,04,12,00,12,6.80
2008,04,12,00,13,6.70
2008,04,12,00,14,6.70
2008,04,12,00,15,6.70
2008,04,12,00,16,6.60
2008,04,12,00,17,6.60
2008,04,12,00,18,6.60
2008,04,12,00,19,6.40
2008,04,12,00,20,6.40
2008,04,12,00,21,6.40
2008,04,12,00,22,6.30
2008,04,12,00,23,6.30
2008,04,12,00,24,6.30
2008,04,12,00,25,6.20
2008,04,12,00,26,6.20
2008,04,12,00,27,6.20
2008,04,12,00,28,6.10
2008,04,12,00,29,6.10
2008,04,12,00,30,6.00
2008,04,12,00,31,6.00
2008,04,12,00,32,6.00
2008,04,12,00,33,6.00
2008,04,12,00,34,6.00
2008,04,12,00,35,6.00
2008,04,12,00,36,6.00
2008,04,12,00,37,6.00
2008,04,12,00,38,6.10
2008,04,12,00,39,6.10
2008,04,12,00,40,6.10
2008,04,12,00,41,6.20
2008,04,12,00,42,6.20
2008,04,12,00,43,6.20
2008,04,12,00,44,6.30
2008,04,12,00,45,6.30
2008,04,12,00,46,6.40
2008,04,12,00,47,6.50
2008,04,12,00,48,6.60
2008,04,12,00,49,6.70
2008,04,12,00,50,6.70
2008,04,12,00,51,6.80
2008,04,12,00,52,6.80
2008,04,12,00,53,6.80
2008,04,12,00,54,6.70
2008,04,12,00,55,6.70
2008,04,12,00,56,6.60
2008,04,12,00,57,6.60
2008,04,12,00,58,6.50
2008,04,12,00,59,6.40
2008,04,12,01,00,6.40
2008,04,12,01,01,6.30
2008,04,12,01,02,6.30
2008,04,12,01,03,6.30
2008,04,12,01,04,6.30
2008,04,12,01,05,6.40
2008,04,12,01,06,6.40
2008,04,12,01,07,6.50
2008,04,12,01,08,6.60
2008,04,12,01,09,6.60
2008,04,12,01,10,6.70
2008,04,12,01,11,6.70
2008,04,12,01,12,6.80
2008,04,12,01,13,6.80
2008,04,12,01,14,6.80
2008,04,12,01,15,6.80
2008,04,12,01,16,6.80
2008,04,12,01,17,6.80
2008,04,12,01,18,6.80
2008,04,12,01,19,6.80
2008,04,12,01,20,6.80
2008,04,12,01,21,6.80
2008,04,12,01,22,6.80
2008,04,12,01,23,6.80
2008,04,12,01,24,6.80
2008,04,12,01,25,6.80
2008,04,12,01,26,6.80
2008,04,12,01,27,6.80
2008,04,12,01,28,6.80
2008,04,12,01,29,6.80
2008,04,12,01,30,6.80
2008,04,12,01,31,6.80
2008,04,12,01,32,6.80
2008,04,12,01,33,6.80
2008,04,12,01,34,6.80
2008,04,12,01,35,6.80
2008,04,12,01,36,6.80
2008,04,12,01,37,6.80
2008,04,12,01,38,6.80
2008,04,12,01,39,6.80
2008,04,12,01,40,6.90
2008,04,12,01,41,6.90
2008,04,12,01,42,6.90
2008,04,12,01,43,6.90
2008,04,12,01,44,7.00
2008,04,12,01,45,7.00
2008,04,12,01,46,7.00
2008,04,12,01,47,7.00
2008,04,12,01,48,7.00
2008,04,12,01,49,7.00
2008,04,12,01,50,7.10
2008,04,12,01,51,7.10
2008,04,12,01,52,7.10
2008,04,12,01,53,7.10
2008,04,12,01,54,7.10
2008,04,12,01,55,7.10
2008,04,12,01,56,7.10
2008,04,12,01,57,7.10
2008,04,12,01,58,7.10
2008,04,12,01,59,7.10
2008,04,12,02,00,7.10
2008,04,12,02,01,7.20
2008,04,12,02,02,7.20
2008,04,12,02,03,7.20
2008,04,12,02,04,7.20
2008,04,12,02,05,7.20
2008,04,12,02,06,7.10
2008,04,12,02,07,7.10
2008,04,12,02,08,7.10
2008,04,12,02,09,7.00
2008,04,12,02,10,7.00
2008,04,12,02,11,6.90
2008,04,12,02,12,6.90
2008,04,12,02,13,6.90
2008,04,12,02,14,6.80
2008,04,12,02,15,6.80
2008,04,12,02,16,6.80
2008,04,12,02,17,6.80
2008,04,12,02,18,6.80
2008,04,12,02,19,6.80
2008,04,12,02,20,6.80
2008,04,12,02,21,6.80
2008,04,12,02,22,6.80
2008,04,12,02,23,6.80
2008,04,12,02,24,6.80
2008,04,12,02,25,6.80
2008,04,12,02,26,6.80
2008,04,12,02,27,6.80
2008,04,12,02,28,6.80
2008,04,12,02,29,6.80
2008,04,12,02,30,6.70
2008,04,12,02,31,6.70
2008,04,12,02,32,6.70
2008,04,12,02,33,6.70
2008,04,12,02,34,6.70
2008,04,12,02,35,6.70
2008,04,12,02,36,6.70
2008,04,12,02,37,6.60
2008,04,12,02,38,6.60
2008,04,12,02,39,6.60
2008,04,12,02,40,6.60
2008,04,12,02,41,6.60
2008,04,12,02,42,6.60
2008,04,12,02,43,6.60
2008,04,12,02,44,6.60
2008,04,12,02,45,6.60
2008,04,12,02,46,6.60
2008,04,12,02,47,6.60
2008,04,12,02,48,6.40
2008,04,12,02,49,6.40
2008,04,12,02,50,6.40
2008,04,12,02,51,6.40
2008,04,12,02,52,6.40
2008,04,12,02,53,6.40
2008,04,12,02,54,6.40
2008,04,12,02,55,6.30
2008,04,12,02,56,6.30
2008,04,12,02,57,6.30
2008,04,12,02,58,6.30
2008,04,12,02,59,6.30
2008,04,12,03,00,6.30
2008,04,12,03,01,6.20
2008,04,12,03,02,6.20
2008,04,12,03,03,6.20
2008,04,12,03,04,6.20
2008,04,12,03,05,6.20
2008,04,12,03,06,6.20
2008,04,12,03,07,6.10
2008,04,12,03,08,6.10
2008,04,12,03,09,6.10
2008,04,12,03,10,6.10
2008,04,12,03,11,6.10
2008,04,12,03,12,6.10
2008,04,12,03,13,6.10
2008,04,12,03,14,6.10
2008,04,12,03,15,6.00
2008,04,12,03,16,6.00
2008,04,12,03,17,6.00
2008,04,12,03,18,6.00
2008,04,12,03,19,6.00
2008,04,12,03,20,6.00
2008,04,12,03,21,6.00
2008,04,12,03,22,5.90
2008,04,12,03,23,5.90
2008,04,12,03,24,5.90
2008,04,12,03,25,5.90
2008,04,12,03,26,6.00
2008,04,12,03,27,6.00
2008,04,12,03,28,6.00
2008,04,12,03,29,6.00
2008,04,12,03,30,5.90
2008,04,12,03,31,5.90
2008,04,12,03,32,5.90
2008,04,12,03,33,5.90
2008,04,12,03,34,6.00
2008,04,12,03,35,6.00
2008,04,12,03,36,6.10
2008,04,12,03,37,6.10
2008,04,12,03,38,6.10
2008,04,12,03,39,6.10
2008,04,12,03,40,6.20
2008,04,12,03,41,6.20
2008,04,12,03,42,6.20
2008,04,12,03,43,6.20
2008,04,12,03,44,6.20
2008,04,12,03,45,6.20
2008,04,12,03,46,6.20
2008,04,12,03,47,6.20
2008,04,12,03,48,6.20
2008,04,12,03,49,6.20
2008,04,12,03,50,6.10
2008,04,12,03,51,6.10
2008,04,12,03,52,6.10
2008,04,12,03,53,6.10
2008,04,12,03,54,6.10
2008,04,12,03,55,6.10
2008,04,12,03,56,6.20
2008,04,12,03,57,6.20
2008,04,12,03,58,6.20
2008,04,12,03,59,6.30
2008,04,12,04,00,6.30
2008,04,12,04,01,6.40
2008,04,12,04,02,6.40
2008,04,12,04,03,6.40
2008,04,12,04,04,6.40
2008,04,12,04,05,6.40
2008,04,12,04,06,6.40
2008,04,12,04,07,6.40
2008,04,12,04,08,6.40
2008,04,12,04,09,6.40
2008,04,12,04,10,6.30
2008,04,12,04,11,6.20
2008,04,12,04,12,6.20
2008,04,12,04,13,6.20
2008,04,12,04,14,6.10
2008,04,12,04,15,6.00
2008,04,12,04,16,6.00
2008,04,12,04,17,6.00
2008,04,12,04,18,5.90
2008,04,12,04,19,5.90
2008,04,12,04,20,5.90
2008,04,12,04,21,5.90
2008,04,12,04,22,5.80
2008,04,12,04,23,5.80
2008,04,12,04,24,5.80
2008,04,12,04,25,5.70
2008,04,12,04,26,5.70
2008,04,12,04,27,5.70
2008,04,12,04,28,5.70
2008,04,12,04,29,5.70
2008,04,12,04,30,5.70
2008,04,12,04,31,5.70
2008,04,12,04,32,5.70
2008,04,12,04,33,5.70
2008,04,12,04,34,5.70
2008,04,12,04,35,5.60
2008,04,12,04,36,5.60
2008,04,12,04,37,5.60
2008,04,12,04,38,5.60
2008,04,12,04,39,5.60
2008,04,12,04,40,5.50
2008,04,12,04,41,5.50
2008,04,12,04,42,5.40
2008,04,12,04,43,5.40
2008,04,12,04,44,5.40
2008,04,12,04,45,5.30
2008,04,12,04,46,5.30
2008,04,12,04,47,5.30
2008,04,12,04,48,5.30
2008,04,12,04,49,5.30
2008,04,12,04,50,5.30
2008,04,12,04,51,5.30
2008,04,12,04,52,5.20
2008,04,12,04,53,5.20
2008,04,12,04,54,5.20
2008,04,12,04,55,5.10
2008,04,12,04,56,5.10
2008,04,12,04,57,5.10
2008,04,12,04,58,5.10
2008,04,12,04,59,5.10
2008,04,12,05,00,5.10
2008,04,12,05,01,5.10
2008,04,12,05,02,4.90
2008,04,12,05,03,4.90
2008,04,12,05,04,4.90
2008,04,12,05,05,4.90
2008,04,12,05,06,4.90
2008,04,12,05,07,4.90
2008,04,12,05,08,4.90
2008,04,12,05,09,4.80
2008,04,12,05,10,4.80
2008,04,12,05,11,4.80
2008,04,12,05,12,4.80
2008,04,12,05,13,4.80
2008,04,12,05,14,4.80
2008,04,12,05,15,4.80
2008,04,12,05,16,4.70
2008,04,12,05,17,4.70
2008,04,12,05,18,4.70
2008,04,12,05,19,4.70
2008,04,12,05,20,4.80
2008,04,12,05,21,4.80
2008,04,12,05,22,4.80
2008,04,12,05,23,4.80
2008,04,12,05,24,4.80
2008,04,12,05,25,4.70
2008,04,12,05,26,4.70
2008,04,12,05,27,4.70
2008,04,12,05,28,4.70
2008,04,12,05,29,4.70
2008,04,12,05,30,4.60
2008,04,12,05,31,4.60
2008,04,12,05,32,4.60
2008,04,12,05,33,4.60
2008,04,12,05,34,4.60
2008,04,12,05,35,4.60
2008,04,12,05,36,4.60
2008,04,12,05,37,4.60
2008,04,12,05,38,4.60
2008,04,12,05,39,4.60
2008,04,12,05,40,4.60
2008,04,12,05,41,4.60
2008,04,12,05,42,4.60
2008,04,12,05,43,4.60
2008,04,12,05,44,4.60
2008,04,12,05,45,4.60
2008,04,12,05,46,4.60
2008,04,12,05,47,4.60
2008,04,12,05,48,4.60
2008,04,12,05,49,4.70
2008,04,12,05,50,4.60
2008,04,12,05,51,4.70
2008,04,12,05,52,4.70
2008,04,12,05,53,4.70
2008,04,12,05,54,4.70
2008,04,12,05,55,4.70
2008,04,12,05,56,4.70
2008,04,12,05,57,4.70
2008,04,12,05,58,4.70
2008,04,12,05,59,4.70
2008,04,12,06,00,4.70
2008,04,12,06,01,4.70
2008,04,12,06,02,4.70
2008,04,12,06,03,4.70
2008,04,12,06,04,4.70
2008,04,12,06,05,4.70
2008,04,12,06,06,4.70
2008,04,12,06,07,4.70
2008,04,12,06,08,4.70
2008,04,12,06,09,4.70
2008,04,12,06,10,4.70
2008,04,12,06,11,4.70
2008,04,12,06,12,4.70
2008,04,12,06,13,4.70
2008,04,12,06,14,4.70
2008,04,12,06,15,4.70
2008,04,12,06,16,4.70
2008,04,12,06,17,4.70
2008,04,12,06,18,4.70
2008,04,12,06,19,4.80
2008,04,12,06,20,4.80
2008,04,12,06,21,4.80
2008,04,12,06,22,4.90
2008,04,12,06,23,4.90
2008,04,12,06,24,4.90
2008,04,12,06,25,4.90
2008,04,12,06,26,4.90
2008,04,12,06,27,4.90
2008,04,12,06,28,4.90
2008,04,12,06,29,4.90
2008,04,12,06,30,4.90
2008,04,12,06,31,4.90
2008,04,12,06,32,4.90
2008,04,12,06,33,4.90
2008,04,12,06,34,4.90
2008,04,12,06,35,4.90
2008,04,12,06,36,4.90
2008,04,12,06,37,4.90
2008,04,12,06,38,4.90
2008,04,12,06,39,4.80
2008,04,12,06,40,4.80
2008,04,12,06,41,4.80
2008,04,12,06,42,4.80
2008,04,12,06,43,4.80
2008,04,12,06,44,4.70
2008,04,12,06,45,4.70
2008,04,12,06,46,4.70
2008,04,12,06,47,4.70
2008,04,12,06,48,4.60
2008,04,12,06,49,4.60
2008,04,12,06,50,4.60
2008,04,12,06,51,4.60
2008,04,12,06,52,4.60
2008,04,12,06,53,4.60
2008,04,12,06,54,4.60
2008,04,12,06,55,4.60
2008,04,12,06,56,4.60
2008,04,12,06,57,4.60
2008,04,12,06,58,4.60
2008,04,12,06,59,4.60
2008,04,12,07,00,4.60
2008,04,12,07,01,4.60
2008,04,12,07,02,4.60
2008,04,12,07,03,4.60
2008,04,12,07,04,4.60
2008,04,12,07,05,4.60
2008,04,12,07,06,4.60
2008,04,12,07,07,4.60
2008,04,12,07,08,4.60
2008,04,12,07,09,4.60
2008,04,12,07,10,4.60
2008,04,12,07,11,4.60
2008,04,12,07,12,4.60
2008,04,12,07,13,4.60
2008,04,12,07,14,4.60
2008,04,12,07,15,4.60
2008,04,12,07,16,4.60
2008,04,12,07,17,4.60
2008,04,12,07,18,4.60
2008,04,12,07,19,4.50
2008,04,12,07,20,4.50
2008,04,12,07,21,4.50
2008,04,12,07,22,4.60
2008,04,12,07,23,4.60
2008,04,12,07,24,4.60
2008,04,12,07,25,4.60
2008,04,12,07,26,4.50
2008,04,12,07,27,4.60
2008,04,12,07,28,4.60
2008,04,12,07,29,4.60
2008,04,12,07,30,4.60
2008,04,12,07,31,4.60
2008,04,12,07,32,4.60
2008,04,12,07,33,4.60
2008,04,12,07,34,4.60
2008,04,12,07,35,4.60
2008,04,12,07,36,4.60
2008,04,12,07,37,4.60
2008,04,12,07,38,4.60
2008,04,12,07,39,4.60
2008,04,12,07,40,4.70
2008,04,12,07,41,4.70
2008,04,12,07,42,4.70
2008,04,12,07,43,4.70
2008,04,12,07,44,4.70
2008,04,12,07,45,4.80
2008,04,12,07,46,4.80
2008,04,12,07,47,4.80
2008,04,12,07,48,4.80
2008,04,12,07,49,4.90
2008,04,12,07,50,4.90
2008,04,12,07,51,4.90
2008,04,12,07,52,5.00
2008,04,12,07,53,5.10
2008,04,12,07,54,5.10
2008,04,12,07,55,5.10
2008,04,12,07,56,5.20
2008,04,12,07,57,5.30
2008,04,12,07,58,5.30
2008,04,12,07,59,5.40
2008,04,12,08,00,5.50
2008,04,12,08,01,5.60
2008,04,12,08,02,5.70
2008,04,12,08,03,5.70
2008,04,12,08,04,5.80
2008,04,12,08,05,5.90
2008,04,12,08,06,5.90
2008,04,12,08,07,6.00
2008,04,12,08,08,6.10
2008,04,12,08,09,6.20
2008,04,12,08,10,6.20
2008,04,12,08,11,6.20
2008,04,12,08,12,6.20
2008,04,12,08,13,6.30
2008,04,12,08,14,6.30
2008,04,12,08,15,6.30
2008,04,12,08,16,6.40
2008,04,12,08,17,6.40
2008,04,12,08,18,6.50
2008,04,12,08,19,6.60
2008,04,12,08,20,6.60
2008,04,12,08,21,6.80
2008,04,12,08,22,6.80
2008,04,12,08,23,6.90
2008,04,12,08,24,7.00
2008,04,12,08,25,7.10
2008,04,12,08,26,7.10
2008,04,12,08,27,7.20
2008,04,12,08,28,7.30
2008,04,12,08,29,7.30
2008,04,12,08,30,7.40
2008,04,12,08,31,7.50
2008,04,12,08,32,7.50
2008,04,12,08,33,7.60
2008,04,12,08,34,7.70
2008,04,12,08,35,7.80
2008,04,12,08,36,7.90
2008,04,12,08,37,8.00
2008,04,12,08,38,8.10
2008,04,12,08,39,8.10
2008,04,12,08,40,8.20
2008,04,12,08,41,8.40
2008,04,12,08,42,8.50
2008,04,12,08,43,8.60
2008,04,12,08,44,8.70
2008,04,12,08,45,8.80
2008,04,12,08,46,8.80
2008,04,12,08,47,8.90
2008,04,12,08,48,9.00
2008,04,12,08,49,9.00
2008,04,12,08,50,9.10
2008,04,12,08,51,9.20
2008,04,12,08,52,9.20
2008,04,12,08,53,9.30
2008,04,12,08,54,9.30
2008,04,12,08,55,9.40
2008,04,12,08,56,9.40
2008,04,12,08,57,9.50
2008,04,12,08,58,9.50
2008,04,12,08,59,9.60
2008,04,12,09,00,9.60
2008,04,12,09,01,9.70
2008,04,12,09,02,9.70
2008,04,12,09,03,9.70
2008,04,12,09,04,9.70
2008,04,12,09,05,9.80
2008,04,12,09,06,9.80
2008,04,12,09,07,9.90
2008,04,12,09,08,9.90
2008,04,12,09,09,9.90
2008,04,12,09,10,9.90
2008,04,12,09,11,9.90
2008,04,12,09,12,10.10
2008,04,12,09,13,10.10
2008,04,12,09,14,10.10
2008,04,12,09,15,10.10
2008,04,12,09,16,10.20
2008,04,12,09,17,10.20
2008,04,12,09,18,10.20
2008,04,12,09,19,10.30
2008,04,12,09,20,10.30
2008,04,12,09,21,10.30
2008,04,12,09,22,10.40
2008,04,12,09,23,10.40
2008,04,12,09,24,10.40
2008,04,12,09,25,10.40
2008,04,12,09,26,10.40
2008,04,12,09,27,10.40
2008,04,12,09,28,10.50
2008,04,12,09,29,10.60
2008,04,12,09,30,10.60
2008,04,12,09,31,10.60
2008,04,12,09,32,10.60
2008,04,12,09,33,10.60
2008,04,12,09,34,10.60
2008,04,12,09,35,10.60
2008,04,12,09,36,10.60
2008,04,12,09,37,10.60
2008,04,12,09,38,10.60
2008,04,12,09,39,10.70
2008,04,12,09,40,10.70
2008,04,12,09,41,10.70
2008,04,12,09,42,10.80
2008,04,12,09,43,10.80
2008,04,12,09,44,10.80
2008,04,12,09,45,10.80
2008,04,12,09,46,10.80
2008,04,12,09,47,10.80
2008,04,12,09,48,10.90
2008,04,12,09,49,10.90
2008,04,12,09,50,10.90
2008,04,12,09,51,10.90
2008,04,12,09,52,10.90
2008,04,12,09,53,10.90
2008,04,12,09,54,10.90
2008,04,12,09,55,11.00
2008,04,12,09,56,11.10
2008,04,12,09,57,11.10
2008,04,12,09,58,11.10
2008,04,12,09,59,11.10
2008,04,12,10,00,11.10
2008,04,12,10,01,11.10
2008,04,12,10,02,11.10
2008,04,12,10,03,11.10
2008,04,12,10,04,11.20
2008,04,12,10,05,11.20
2008,04,12,10,06,11.20
2008,04,12,10,07,11.30
2008,04,12,10,08,11.30
2008,04,12,10,09,11.30
2008,04,12,10,10,11.30
2008,04,12,10,11,11.40
2008,04,12,10,12,11.40
2008,04,12,10,13,11.40
2008,04,12,10,14,11.40
2008,04,12,10,15,11.40
2008,04,12,10,16,11.40
2008,04,12,10,17,11.40
2008,04,12,10,18,11.40
2008,04,12,10,19,11.40
2008,04,12,10,20,11.50
2008,04,12,10,21,11.60
2008,04,12,10,22,11.50
2008,04,12,10,23,11.50
2008,04,12,10,24,11.40
2008,04,12,10,25,11.40
2008,04,12,10,26,11.40
2008,04,12,10,27,11.40
2008,04,12,10,28,11.40
2008,04,12,10,29,11.40
2008,04,12,10,30,11.50
2008,04,12,10,31,11.60
2008,04,12,10,32,11.60
2008,04,12,10,33,11.60
2008,04,12,10,34,11.60
2008,04,12,10,35,11.60
2008,04,12,10,36,11.60
2008,04,12,10,37,11.70
2008,04,12,10,38,11.70
2008,04,12,10,39,11.70
2008,04,12,10,40,11.70
2008,04,12,10,41,11.70
2008,04,12,10,42,11.70
2008,04,12,10,43,11.70
2008,04,12,10,44,11.70
2008,04,12,10,45,11.70
2008,04,12,10,46,11.80
2008,04,12,10,47,11.80
2008,04,12,10,48,11.80
2008,04,12,10,49,11.80
2008,04,12,10,50,11.80
2008,04,12,10,51,11.80
2008,04,12,10,52,11.80
2008,04,12,10,53,11.90
2008,04,12,10,54,11.90
2008,04,12,10,55,11.90
2008,04,12,10,56,11.90
2008,04,12,10,57,11.90
2008,04,12,10,58,12.00
2008,04,12,10,59,12.00
2008,04,12,11,00,12.00
2008,04,12,11,01,12.10
2008,04,12,11,02,12.10
2008,04,12,11,03,12.10
2008,04,12,11,04,12.10
2008,04,12,11,05,12.20
2008,04,12,11,06,12.20
2008,04,12,11,07,12.20
2008,04,12,11,08,12.20
2008,04,12,11,09,12.20
2008,04,12,11,10,12.20
2008,04,12,11,11,12.20
2008,04,12,11,12,12.20
2008,04,12,11,13,12.20
2008,04,12,11,14,12.20
2008,04,12,11,15,12.20
2008,04,12,11,16,12.20
2008,04,12,11,17,12.20
2008,04,12,11,18,12.30
2008,04,12,11,19,12.30
2008,04,12,11,20,12.30
2008,04,12,11,21,12.30
2008,04,12,11,22,12.30
2008,04,12,11,23,12.30
2008,04,12,11,24,12.30
2008,04,12,11,25,12.30
2008,04,12,11,26,12.30
2008,04,12,11,27,12.30
2008,04,12,11,28,12.40
2008,04,12,11,29,12.40
2008,04,12,11,30,12.40
2008,04,12,11,31,12.40
2008,04,12,11,32,12.50
2008,04,12,11,33,12.50
2008,04,12,11,34,12.60
2008,04,12,11,35,12.60
2008,04,12,11,36,12.70
2008,04,12,11,37,12.70
2008,04,12,11,38,12.80
2008,04,12,11,39,12.80
2008,04,12,11,40,12.80
2008,04,12,11,41,12.80
2008,04,12,11,42,12.80
2008,04,12,11,43,12.80
2008,04,12,11,44,12.90
2008,04,12,11,45,12.90
2008,04,12,11,46,12.90
2008,04,12,11,47,12.90
2008,04,12,11,48,13.00
2008,04,12,11,49,13.00
2008,04,12,11,50,13.00
2008,04,12,11,51,13.10
2008,04,12,11,52,13.20
2008,04,12,11,53,13.20
2008,04,12,11,54,13.30
2008,04,12,11,55,13.30
2008,04,12,11,56,13.30
2008,04,12,11,57,13.40
2008,04,12,11,58,13.40
2008,04,12,11,59,13.50
2008,04,12,12,00,13.60
2008,04,12,12,01,13.60
2008,04,12,12,02,13.60
2008,04,12,12,03,13.70
2008,04,12,12,04,13.70
2008,04,12,12,05,13.70
2008,04,12,12,06,13.80
2008,04,12,12,07,13.80
2008,04,12,12,08,13.80
2008,04,12,12,09,13.80
2008,04,12,12,10,13.80
2008,04,12,12,11,13.80
2008,04,12,12,12,13.90
2008,04,12,12,13,13.90
2008,04,12,12,14,13.90
2008,04,12,12,15,13.90
2008,04,12,12,16,14.00
2008,04,12,12,17,14.00
2008,04,12,12,18,14.00
2008,04,12,12,19,14.10
2008,04,12,12,20,14.20
2008,04,12,12,21,14.20
2008,04,12,12,22,14.20
2008,04,12,12,23,14.20
2008,04,12,12,24,14.30
2008,04,12,12,25,14.30
2008,04,12,12,26,14.40
2008,04,12,12,27,14.40
2008,04,12,12,28,14.40
2008,04,12,12,29,14.40
2008,04,12,12,30,14.40
2008,04,12,12,31,14.40
2008,04,12,12,32,14.40
2008,04,12,12,33,14.40
2008,04,12,12,34,14.30
2008,04,12,12,35,14.40
2008,04,12,12,36,14.40
2008,04,12,12,37,14.40
2008,04,12,12,38,14.40
2008,04,12,12,39,14.40
2008,04,12,12,40,14.50
2008,04,12,12,41,14.50
2008,04,12,12,42,14.50
2008,04,12,12,43,14.50
2008,04,12,12,44,14.50
2008,04,12,12,45,14.50
2008,04,12,12,46,14.50
2008,04,12,12,47,14.60
2008,04,12,12,48,14.60
2008,04,12,12,49,14.60
2008,04,12,12,50,14.60
2008,04,12,12,51,14.60
2008,04,12,12,52,14.60
2008,04,12,12,53,14.70
2008,04,12,12,54,14.70
2008,04,12,12,55,14.70
2008,04,12,12,56,14.70
2008,04,12,12,57,14.80
2008,04,12,12,58,14.80
2008,04,12,12,59,14.80
2008,04,12,13,00,14.80
2008,04,12,13,01,14.90
2008,04,12,13,02,14.90
2008,04,12,13,03,15.00
2008,04,12,13,04,15.00
2008,04,12,13,05,15.10
2008,04,12,13,06,15.10
2008,04,12,13,07,15.20
2008,04,12,13,08,15.20
2008,04,12,13,09,15.20
2008,04,12,13,10,15.20
2008,04,12,13,11,15.20
2008,04,12,13,12,15.30
2008,04,12,13,13,15.30
2008,04,12,13,14,15.30
2008,04,12,13,15,15.20
2008,04,12,13,16,15.20
2008,04,12,13,17,15.20
2008,04,12,13,18,15.20
2008,04,12,13,19,15.20
2008,04,12,13,20,15.30
2008,04,12,13,21,15.30
2008,04,12,13,22,15.30
2008,04,12,13,23,15.30
2008,04,12,13,24,15.30
2008,04,12,13,25,15.30
2008,04,12,13,26,15.30
2008,04,12,13,27,15.30
2008,04,12,13,28,15.40
2008,04,12,13,29,15.50
2008,04,12,13,30,15.60
2008,04,12,13,31,15.70
2008,04,12,13,32,15.90
2008,04,12,13,33,16.00
2008,04,12,13,34,16.10
2008,04,12,13,35,16.20
2008,04,12,13,36,16.30
2008,04,12,13,37,16.40
2008,04,12,13,38,16.40
2008,04,12,13,39,16.40
2008,04,12,13,40,16.40
2008,04,12,13,41,16.40
2008,04,12,13,42,16.40
2008,04,12,13,43,16.30
2008,04,12,13,44,16.30
2008,04,12,13,45,16.20
2008,04,12,13,46,16.20
2008,04,12,13,47,16.10
2008,04,12,13,48,16.10
2008,04,12,13,49,16.10
2008,04,12,13,50,16.20
2008,04,12,13,51,16.20
2008,04,12,13,52,16.30
2008,04,12,13,53,16.30
2008,04,12,13,54,16.40
2008,04,12,13,55,16.50
2008,04,12,13,56,16.60
2008,04,12,13,57,16.70
2008,04,12,13,58,16.90
2008,04,12,13,59,17.00
2008,04,12,14,00,17.10
2008,04,12,14,01,17.20
2008,04,12,14,02,17.20
2008,04,12,14,03,17.30
2008,04,12,14,04,17.30
2008,04,12,14,05,17.30
2008,04,12,14,06,17.20
2008,04,12,14,07,17.30
2008,04,12,14,08,17.30
2008,04,12,14,09,17.30
2008,04,12,14,10,17.30
2008,04,12,14,11,17.30
2008,04,12,14,12,17.30
2008,04,12,14,13,17.30
2008,04,12,14,14,17.20
2008,04,12,14,15,17.20
2008,04,12,14,16,17.20
2008,04,12,14,17,17.10
2008,04,12,14,18,17.20
2008,04,12,14,19,17.20
2008,04,12,14,20,17.20
2008,04,12,14,21,17.20
2008,04,12,14,22,17.20
2008,04,12,14,23,17.30
2008,04,12,14,24,17.30
2008,04,12,14,25,17.30
2008,04,12,14,26,17.20
2008,04,12,14,27,17.20
2008,04,12,14,28,17.20
2008,04,12,14,29,17.10
2008,04,12,14,30,17.10
2008,04,12,14,31,17.10
2008,04,12,14,32,17.00
2008,04,12,14,33,17.00
2008,04,12,14,34,17.00
2008,04,12,14,35,17.00
2008,04,12,14,36,17.10
2008,04,12,14,37,17.10
2008,04,12,14,38,17.20
2008,04,12,14,39,17.20
2008,04,12,14,40,17.30
2008,04,12,14,41,17.30
2008,04,12,14,42,17.40
2008,04,12,14,43,17.50
2008,04,12,14,44,17.60
2008,04,12,14,45,17.70
2008,04,12,14,46,17.80
2008,04,12,14,47,17.90
2008,04,12,14,48,17.90
2008,04,12,14,49,17.90
2008,04,12,14,50,17.90
2008,04,12,14,51,18.00
2008,04,12,14,52,18.20
2008,04,12,14,53,18.20
2008,04,12,14,54,18.30
2008,04,12,14,55,18.30
2008,04,12,14,56,18.30
2008,04,12,14,57,18.30
2008,04,12,14,58,18.30
2008,04,12,14,59,18.30
2008,04,12,15,00,18.20
2008,04,12,15,01,18.20
2008,04,12,15,02,18.20
2008,04,12,15,03,18.20
2008,04,12,15,04,18.10
2008,04,12,15,05,17.90
2008,04,12,15,06,17.90
2008,04,12,15,07,18.00
2008,04,12,15,08,18.10
2008,04,12,15,09,18.10
2008,04,12,15,10,18.10
2008,04,12,15,11,18.20
2008,04,12,15,12,18.20
2008,04,12,15,13,18.30
2008,04,12,15,14,18.40
2008,04,12,15,15,18.50
2008,04,12,15,16,18.70
2008,04,12,15,17,18.70
2008,04,12,15,18,18.90
2008,04,12,15,19,18.90
2008,04,12,15,20,18.90
2008,04,12,15,21,18.90
2008,04,12,15,22,18.90
2008,04,12,15,23,18.90
2008,04,12,15,24,18.90
2008,04,12,15,25,18.90
2008,04,12,15,26,18.80
2008,04,12,15,27,18.80
2008,04,12,15,28,18.70
2008,04,12,15,29,18.70
2008,04,12,15,30,18.70
2008,04,12,15,31,18.80
2008,04,12,15,32,18.80
2008,04,12,15,33,18.80
2008,04,12,15,34,18.90
2008,04,12,15,35,18.90
2008,04,12,15,36,19.00
2008,04,12,15,37,19.10
2008,04,12,15,38,19.20
2008,04,12,15,39,19.30
2008,04,12,15,40,19.30
2008,04,12,15,41,19.30
2008,04,12,15,42,19.40
2008,04,12,15,43,19.40
2008,04,12,15,44,19.50
2008,04,12,15,45,19.50
2008,04,12,15,46,19.50
2008,04,12,15,47,19.50
2008,04,12,15,48,19.50
2008,04,12,15,49,19.40
2008,04,12,15,50,19.40
2008,04,12,15,51,19.30
2008,04,12,15,52,19.30
2008,04,12,15,53,19.20
2008,04,12,15,54,19.10
2008,04,12,15,55,19.10
2008,04,12,15,56,19.10
2008,04,12,15,57,19.10
2008,04,12,15,58,19.00
2008,04,12,15,59,18.90
2008,04,12,16,00,18.90
2008,04,12,16,01,18.90
2008,04,12,16,02,18.90
2008,04,12,16,03,18.90
2008,04,12,16,04,18.90
2008,04,12,16,05,18.90
2008,04,12,16,06,18.90
2008,04,12,16,07,18.80
2008,04,12,16,08,18.80
2008,04,12,16,09,18.70
2008,04,12,16,10,18.70
2008,04,12,16,11,18.60
2008,04,12,16,12,18.60
2008,04,12,16,13,18.60
2008,04,12,16,14,18.50
2008,04,12,16,15,18.50
2008,04,12,16,16,18.50
2008,04,12,16,17,18.50
2008,04,12,16,18,18.50
2008,04,12,16,19,18.50
2008,04,12,16,20,18.50
2008,04,12,16,21,18.40
2008,04,12,16,22,18.40
2008,04,12,16,23,18.40
2008,04,12,16,24,18.40
2008,04,12,16,25,18.40
2008,04,12,16,26,18.40
2008,04,12,16,27,18.40
2008,04,12,16,28,18.40
2008,04,12,16,29,18.40
2008,04,12,16,30,18.40
2008,04,12,16,31,18.40
2008,04,12,16,32,18.40
2008,04,12,16,33,18.40
2008,04,12,16,34,18.40
2008,04,12,16,35,18.30
2008,04,12,16,36,18.30
2008,04,12,16,37,18.30
2008,04,12,16,38,18.30
2008,04,12,16,39,18.30
2008,04,12,16,40,18.30
2008,04,12,16,41,18.30
2008,04,12,16,42,18.30
2008,04,12,16,43,18.20
2008,04,12,16,44,18.20
2008,04,12,16,45,18.20
2008,04,12,16,46,18.20
2008,04,12,16,47,18.20
2008,04,12,16,48,18.20
2008,04,12,16,49,18.20
2008,04,12,16,50,18.20
2008,04,12,16,51,18.10
2008,04,12,16,52,18.10
2008,04,12,16,53,18.10
2008,04,12,16,54,18.10
2008,04,12,16,55,18.00
2008,04,12,16,56,17.90
2008,04,12,16,57,17.90
2008,04,12,16,58,17.90
2008,04,12,16,59,17.90
2008,04,12,17,00,17.90
2008,04,12,17,01,17.90
2008,04,12,17,02,17.90
2008,04,12,17,03,17.90
2008,04,12,17,04,17.90
2008,04,12,17,05,17.90
2008,04,12,17,06,17.80
2008,04,12,17,07,17.80
2008,04,12,17,08,17.70
2008,04,12,17,09,17.70
2008,04,12,17,10,17.70
2008,04,12,17,11,17.70
2008,04,12,17,12,17.70
2008,04,12,17,13,17.70
2008,04,12,17,14,17.70
2008,04,12,17,15,17.60
2008,04,12,17,16,17.60
2008,04,12,17,17,17.60
2008,04,12,17,18,17.50
2008,04,12,17,19,17.50
2008,04,12,17,20,17.50
2008,04,12,17,21,17.40
2008,04,12,17,22,17.40
2008,04,12,17,23,17.40
2008,04,12,17,24,17.30
2008,04,12,17,25,17.30
2008,04,12,17,26,17.30
2008,04,12,17,27,17.30
2008,04,12,17,28,17.30
2008,04,12,17,29,17.30
2008,04,12,17,30,17.30
2008,04,12,17,31,17.30
2008,04,12,17,32,17.30
2008,04,12,17,33,17.30
2008,04,12,17,34,17.30
2008,04,12,17,35,17.30
2008,04,12,17,36,17.30
2008,04,12,17,37,17.20
2008,04,12,17,38,17.20
2008,04,12,17,39,17.20
2008,04,12,17,40,17.20
2008,04,12,17,41,17.20
2008,04,12,17,42,17.20
2008,04,12,17,43,17.20